Location: Poprad
(49.0500°N, 20.3000°E)
Time: 09:14:05
(UTC+02:00)

Oscar 11 - Pass Details

Date: 23 April 2024
Orbit: 602 x 614 km, 97.7° (Epoch: 19 May)

Event Time Altitude Azimuth Distance (km) Brightness Sun altitude
Rises 03:13:55 0° 31° (NNE) 2,893 12.1 -19.3°
Reaches altitude 10° 03:17:21 10° 61° (ENE) 1,978 10.7 -18.9°
Maximum altitude 03:19:15 13° 87° (E) 1,800 10.0 -18.7°
Drops below altitude 10° 03:21:09 10° 114° (ESE) 1,967 9.9 -18.5°
Sets 03:24:32 0° 143° (SE) 2,861 10.4 -18.1°
